Location: Stockholm
(59.3330°N, 18.0500°E)
Time: 13:11:34
(UTC+02:00)

ISS - Pass Details

Date: 22 September 2022
Orbit: 414 x 417 km, 51.6° (Epoch: 01 October)

Event Time Altitude Azimuth Distance (km) Brightness Sun altitude
Rises 21:21:50 0° 254° (WSW) 2,366 0.6 -19.2°
Reaches altitude 10° 21:24:14 10° 239° (WSW) 1,502 -0.7 -19.4°
Enters shadow 21:25:50 19° 213° (SSW) 1,085 -1.7 -19.6°
